Time,TemperatureF,DewpointF,PressureIn,WindDirection,WindDirectionDegrees,WindSpeedMPH,WindSpeedGustMPH,Humidity,HourlyPrecipIn,Conditions,Clouds,dailyrainin,SoftwareType,DateUTC
2013-08-08 00:02:00,77.5,75.0,29.93,East,82,1.0,6.0,92,0.00,,,0.94,meteohub,2013-08-08 04:02:00,
2013-08-08 00:07:00,77.5,75.0,29.93,East,91,5.0,7.0,92,0.00,,,0.00,meteohub,2013-08-08 04:07:00,
2013-08-08 00:12:00,77.7,75.2,29.93,ENE,77,0.0,8.0,92,0.00,,,0.00,meteohub,2013-08-08 04:12:00,
2013-08-08 00:17:00,77.7,75.2,29.93,ESE,102,2.0,8.0,92,0.00,,,0.00,meteohub,2013-08-08 04:17:00,
2013-08-08 00:22:00,77.7,75.2,29.93,East,82,5.0,7.0,92,0.00,,,0.00,meteohub,2013-08-08 04:22:00,
2013-08-08 00:27:00,77.7,75.2,29.93,ESE,112,1.0,9.0,92,0.00,,,0.00,meteohub,2013-08-08 04:27:00,
2013-08-08 00:32:00,77.7,75.6,29.93,ESE,110,2.0,9.0,93,0.00,,,0.00,meteohub,2013-08-08 04:32:00,
2013-08-08 00:37:00,77.7,75.6,29.92,East,89,5.0,7.0,93,0.00,,,0.00,meteohub,2013-08-08 04:37:00,
2013-08-08 00:42:00,77.7,75.6,29.92,East,100,1.0,7.0,93,0.00,,,0.00,meteohub,2013-08-08 04:42:00,
2013-08-08 00:47:00,77.7,75.6,29.92,East,96,5.0,7.0,93,0.00,,,0.00,meteohub,2013-08-08 04:47:00,
2013-08-08 00:52:00,77.7,75.6,29.93,East,86,5.0,9.0,93,0.00,,,0.00,meteohub,2013-08-08 04:52:00,
2013-08-08 00:57:00,77.7,75.6,29.92,East,87,2.0,9.0,93,0.00,,,0.00,meteohub,2013-08-08 04:57:00,
2013-08-08 01:02:00,77.5,75.4,29.92,ENE,69,2.0,9.0,93,0.00,,,0.00,meteohub,2013-08-08 05:02:00,
2013-08-08 01:07:00,77.5,75.4,29.92,NE,56,2.0,8.0,93,0.00,,,0.00,meteohub,2013-08-08 05:07:00,
2013-08-08 01:12:00,77.4,75.2,29.92,ENE,76,5.0,7.0,93,0.00,,,0.00,meteohub,2013-08-08 05:12:00,
2013-08-08 01:17:00,77.4,75.2,29.92,ENE,74,1.0,8.0,93,0.00,,,0.00,meteohub,2013-08-08 05:17:00,
2013-08-08 01:22:00,77.4,75.2,29.92,ENE,73,3.0,8.0,93,0.00,,,0.00,meteohub,2013-08-08 05:22:00,
2013-08-08 01:27:00,77.2,75.0,29.92,ENE,72,2.0,8.0,93,0.00,,,0.00,meteohub,2013-08-08 05:27:00,
2013-08-08 01:32:00,77.2,75.0,29.92,East,89,1.0,6.0,93,0.00,,,0.00,meteohub,2013-08-08 05:32:00,
2013-08-08 01:37:00,77.2,75.0,29.92,East,88,3.0,7.0,93,0.00,,,0.00,meteohub,2013-08-08 05:37:00,
2013-08-08 01:42:00,77.2,75.0,29.92,ESE,102,5.0,7.0,93,0.00,,,0.00,meteohub,2013-08-08 05:42:00,
2013-08-08 01:47:00,77.2,75.0,29.92,ESE,109,1.0,8.0,93,0.00,,,0.00,meteohub,2013-08-08 05:47:00,
2013-08-08 01:52:00,77.2,75.4,29.92,East,80,0.0,8.0,94,0.00,,,0.00,meteohub,2013-08-08 05:52:00,
2013-08-08 01:57:00,77.2,75.4,29.91,East,89,2.0,10.0,94,0.00,,,0.00,meteohub,2013-08-08 05:57:00,
2013-08-08 02:02:00,77.2,75.4,29.91,East,91,1.0,10.0,94,0.00,,,0.00,meteohub,2013-08-08 06:02:00,
2013-08-08 02:07:00,77.2,75.4,29.92,ESE,113,4.0,10.0,94,0.00,,,0.00,meteohub,2013-08-08 06:07:00,
2013-08-08 02:12:00,77.2,75.4,29.91,East,92,2.0,7.0,94,0.00,,,0.00,meteohub,2013-08-08 06:12:00,
2013-08-08 02:17:00,77.2,75.4,29.92,ESE,105,1.0,8.0,94,0.00,,,0.00,meteohub,2013-08-08 06:17:00,
2013-08-08 02:22:00,77.2,75.4,29.92,ESE,110,1.0,8.0,94,0.00,,,0.00,meteohub,2013-08-08 06:22:00,
2013-08-08 02:27:00,77.0,75.2,29.91,East,97,5.0,8.0,94,0.00,,,0.00,meteohub,2013-08-08 06:27:00,
2013-08-08 02:32:00,77.0,75.2,29.91,East,91,3.0,8.0,94,0.00,,,0.00,meteohub,2013-08-08 06:32:00,
2013-08-08 02:37:00,76.8,75.0,29.91,SE,125,6.0,8.0,94,0.00,,,0.00,meteohub,2013-08-08 06:37:00,
2013-08-08 02:42:00,76.8,75.0,29.91,East,92,5.0,8.0,94,0.00,,,0.00,meteohub,2013-08-08 06:42:00,
2013-08-08 02:47:00,76.8,75.0,29.91,East,85,2.0,8.0,94,0.00,,,0.00,meteohub,2013-08-08 06:47:00,
2013-08-08 02:52:00,76.8,75.0,29.91,East,98,2.0,8.0,94,0.00,,,0.00,meteohub,2013-08-08 06:52:00,
2013-08-08 02:57:00,76.8,75.0,29.91,ESE,108,5.0,7.0,94,0.00,,,0.00,meteohub,2013-08-08 06:57:00,
2013-08-08 03:02:00,76.8,75.0,29.91,ESE,105,3.0,7.0,94,0.00,,,0.00,meteohub,2013-08-08 07:02:00,
2013-08-08 03:07:00,76.8,75.0,29.91,ENE,76,7.0,7.0,94,0.00,,,0.00,meteohub,2013-08-08 07:07:00,
2013-08-08 03:12:00,76.8,75.0,29.91,ESE,109,3.0,7.0,94,0.00,,,0.00,meteohub,2013-08-08 07:12:00,
2013-08-08 03:17:00,76.8,75.0,29.91,ESE,103,5.0,7.0,94,0.00,,,0.00,meteohub,2013-08-08 07:17:00,
2013-08-08 03:22:00,77.0,75.2,29.91,East,92,2.0,8.0,94,0.00,,,0.00,meteohub,2013-08-08 07:22:00,
2013-08-08 03:27:00,77.2,75.4,29.91,East,100,3.0,8.0,94,0.00,,,0.00,meteohub,2013-08-08 07:27:00,
2013-08-08 03:32:00,77.2,75.4,29.90,East,95,5.0,8.0,94,0.00,,,0.00,meteohub,2013-08-08 07:32:00,
2013-08-08 03:37:00,77.2,75.4,29.90,ESE,108,3.0,9.0,94,0.00,,,0.00,meteohub,2013-08-08 07:37:00,
2013-08-08 03:42:00,77.2,75.4,29.90,East,94,2.0,9.0,94,0.00,,,0.00,meteohub,2013-08-08 07:42:00,
2013-08-08 03:47:00,77.2,75.4,29.90,ESE,109,3.0,7.0,94,0.00,,,0.00,meteohub,2013-08-08 07:47:00,
2013-08-08 03:52:00,77.2,75.4,29.90,East,96,3.0,7.0,94,0.00,,,0.00,meteohub,2013-08-08 07:52:00,
2013-08-08 03:57:00,77.2,75.4,29.89,East,99,7.0,7.0,94,0.00,,,0.00,meteohub,2013-08-08 07:57:00,
2013-08-08 04:02:00,77.2,75.6,29.89,ESE,120,1.0,7.0,95,0.00,,,0.00,meteohub,2013-08-08 08:02:00,
2013-08-08 04:07:00,77.2,75.6,29.90,East,90,7.0,7.0,95,0.00,,,0.00,meteohub,2013-08-08 08:07:00,
2013-08-08 04:12:00,77.2,75.6,29.90,ESE,106,4.0,8.0,95,0.00,,,0.00,meteohub,2013-08-08 08:12:00,
2013-08-08 04:17:00,77.2,75.6,29.90,East,80,5.0,8.0,95,0.00,,,0.00,meteohub,2013-08-08 08:17:00,
2013-08-08 04:22:00,77.2,75.6,29.90,East,94,6.0,8.0,95,0.00,,,0.00,meteohub,2013-08-08 08:22:00,
2013-08-08 04:27:00,77.2,75.6,29.89,East,96,5.0,7.0,95,0.00,,,0.00,meteohub,2013-08-08 08:27:00,
2013-08-08 04:32:00,77.2,75.6,29.89,East,90,7.0,7.0,95,0.00,,,0.00,meteohub,2013-08-08 08:32:00,
2013-08-08 04:37:00,77.0,75.4,29.89,East,93,3.0,8.0,95,0.00,,,0.00,meteohub,2013-08-08 08:37:00,
2013-08-08 04:42:00,77.0,75.4,29.89,East,84,3.0,8.0,95,0.00,,,0.00,meteohub,2013-08-08 08:42:00,
2013-08-08 04:47:00,77.0,75.4,29.90,East,84,0.0,8.0,95,0.00,,,0.00,meteohub,2013-08-08 08:47:00,
2013-08-08 04:52:00,77.0,75.4,29.90,East,87,3.0,8.0,95,0.00,,,0.00,meteohub,2013-08-08 08:52:00,
2013-08-08 04:57:00,77.0,75.4,29.90,East,84,5.0,5.0,95,0.00,,,0.00,meteohub,2013-08-08 08:57:00,
2013-08-08 05:02:00,77.0,75.4,29.90,ESE,105,3.0,6.0,95,0.00,,,0.00,meteohub,2013-08-08 09:02:00,
2013-08-08 05:07:00,77.2,75.6,29.90,East,88,2.0,7.0,95,0.00,,,0.00,meteohub,2013-08-08 09:07:00,
2013-08-08 05:12:00,77.2,75.6,29.91,East,101,3.0,7.0,95,0.00,,,0.00,meteohub,2013-08-08 09:12:00,
2013-08-08 05:17:00,77.2,75.6,29.91,East,98,1.0,7.0,95,0.00,,,0.00,meteohub,2013-08-08 09:17:00,
2013-08-08 05:22:00,77.2,75.6,29.90,East,98,3.0,7.0,95,0.00,,,0.00,meteohub,2013-08-08 09:22:00,
2013-08-08 05:27:00,77.2,75.4,29.90,East,100,2.0,5.0,94,0.00,,,0.00,meteohub,2013-08-08 09:27:00,
2013-08-08 05:32:00,77.2,75.4,29.90,East,98,2.0,5.0,94,0.00,,,0.00,meteohub,2013-08-08 09:32:00,
2013-08-08 05:37:00,77.2,75.4,29.90,East,94,2.0,7.0,94,0.00,,,0.00,meteohub,2013-08-08 09:37:00,
2013-08-08 05:42:00,77.2,75.4,29.90,East,94,5.0,7.0,94,0.00,,,0.00,meteohub,2013-08-08 09:42:00,
2013-08-08 05:47:00,77.2,75.4,29.90,ENE,78,5.0,7.0,94,0.00,,,0.00,meteohub,2013-08-08 09:47:00,
2013-08-08 05:52:00,77.4,75.6,29.90,East,91,6.0,6.0,94,0.00,,,0.00,meteohub,2013-08-08 09:52:00,
2013-08-08 05:57:00,77.4,75.6,29.90,East,96,5.0,7.0,94,0.00,,,0.00,meteohub,2013-08-08 09:57:00,
2013-08-08 06:02:00,77.4,75.6,29.90,East,97,2.0,7.0,94,0.00,,,0.00,meteohub,2013-08-08 10:02:00,
2013-08-08 06:07:00,77.5,75.7,29.90,East,93,2.0,7.0,94,0.00,,,0.00,meteohub,2013-08-08 10:07:00,
2013-08-08 06:12:00,77.5,75.7,29.91,East,97,1.0,7.0,94,0.00,,,0.00,meteohub,2013-08-08 10:12:00,
2013-08-08 06:17:00,77.5,75.7,29.91,East,97,0.0,6.0,94,0.00,,,0.00,meteohub,2013-08-08 10:17:00,
2013-08-08 06:22:00,77.5,75.7,29.91,East,97,0.0,6.0,94,0.00,,,0.00,meteohub,2013-08-08 10:22:00,
2013-08-08 06:27:00,77.7,75.9,29.91,East,96,0.0,6.0,94,0.00,,,0.00,meteohub,2013-08-08 10:27:00,
2013-08-08 06:32:00,77.7,75.9,29.91,East,86,5.0,6.0,94,0.00,,,0.00,meteohub,2013-08-08 10:32:00,
2013-08-08 06:37:00,77.7,75.9,29.91,East,86,2.0,6.0,94,0.00,,,0.00,meteohub,2013-08-08 10:37:00,
2013-08-08 06:42:00,77.5,75.7,29.91,East,96,5.0,6.0,94,0.00,,,0.00,meteohub,2013-08-08 10:42:00,
2013-08-08 06:47:00,77.5,75.7,29.91,ESE,104,2.0,8.0,94,0.00,,,0.00,meteohub,2013-08-08 10:47:00,
2013-08-08 06:52:00,77.7,75.9,29.91,East,101,2.0,8.0,94,0.00,,,0.00,meteohub,2013-08-08 10:52:00,
2013-08-08 07:02:00,77.7,75.9,29.91,East,98,0.0,7.0,94,0.00,,,0.00,meteohub,2013-08-08 11:02:00,
2013-08-08 07:07:00,77.7,75.9,29.91,East,95,3.0,7.0,94,0.00,,,0.00,meteohub,2013-08-08 11:07:00,
2013-08-08 07:12:00,77.7,75.9,29.91,East,86,1.0,6.0,94,0.00,,,0.00,meteohub,2013-08-08 11:12:00,
2013-08-08 07:17:00,77.9,76.1,29.91,East,87,3.0,6.0,94,0.00,,,0.00,meteohub,2013-08-08 11:17:00,
2013-08-08 07:22:00,78.1,76.3,29.91,East,87,1.0,6.0,94,0.00,,,0.00,meteohub,2013-08-08 11:22:00,
2013-08-08 07:27:00,78.1,76.3,29.91,ESE,113,3.0,6.0,94,0.00,,,0.00,meteohub,2013-08-08 11:27:00,
2013-08-08 07:32:00,78.3,76.5,29.91,ESE,114,0.0,6.0,94,0.00,,,0.00,meteohub,2013-08-08 11:32:00,
2013-08-08 07:37:00,78.4,76.6,29.91,ESE,113,3.0,5.0,94,0.00,,,0.00,meteohub,2013-08-08 11:37:00,
2013-08-08 07:42:00,78.6,76.8,29.91,ESE,112,2.0,4.0,94,0.00,,,0.00,meteohub,2013-08-08 11:42:00,
2013-08-08 07:47:00,79.0,77.2,29.91,ESE,112,2.0,4.0,94,0.00,,,0.00,meteohub,2013-08-08 11:47:00,
2013-08-08 07:52:00,79.2,77.0,29.91,ESE,111,1.0,4.0,93,0.00,,,0.00,meteohub,2013-08-08 11:52:00,
2013-08-08 07:57:00,79.3,77.2,29.91,East,94,2.0,9.0,93,0.00,,,0.00,meteohub,2013-08-08 11:57:00,
2013-08-08 08:02:00,79.9,77.4,29.91,East,93,3.0,9.0,92,0.00,,,0.00,meteohub,2013-08-08 12:02:00,
2013-08-08 08:07:00,80.1,77.2,29.92,ESE,109,3.0,9.0,91,0.00,,,0.00,meteohub,2013-08-08 12:07:00,
2013-08-08 08:12:00,80.2,77.4,29.92,ESE,120,5.0,8.0,91,0.00,,,0.00,meteohub,2013-08-08 12:12:00,
2013-08-08 08:17:00,80.4,77.2,29.92,ESE,122,7.0,8.0,90,0.00,,,0.00,meteohub,2013-08-08 12:17:00,
2013-08-08 08:22:00,80.4,77.2,29.92,SE,127,0.0,10.0,90,0.00,,,0.00,meteohub,2013-08-08 12:22:00,
2013-08-08 08:27:00,80.6,77.4,29.92,ESE,114,3.0,10.0,90,0.00,,,0.00,meteohub,2013-08-08 12:27:00,
2013-08-08 08:32:00,80.8,77.5,29.92,East,96,7.0,10.0,90,0.00,,,0.00,meteohub,2013-08-08 12:32:00,
2013-08-08 08:37:00,81.0,77.7,29.92,ESE,116,2.0,9.0,90,0.00,,,0.00,meteohub,2013-08-08 12:37:00,
2013-08-08 08:42:00,81.0,77.4,29.92,East,80,10.0,10.0,89,0.00,,,0.00,meteohub,2013-08-08 12:42:00,
2013-08-08 08:47:00,81.0,77.0,29.93,ESE,119,10.0,12.0,88,0.00,,,0.00,meteohub,2013-08-08 12:47:00,
2013-08-08 08:52:00,81.1,77.2,29.93,ESE,120,4.0,12.0,88,0.00,,,0.00,meteohub,2013-08-08 12:52:00,
2013-08-08 08:57:00,81.5,77.5,29.93,ESE,122,10.0,14.0,88,0.00,,,0.00,meteohub,2013-08-08 12:57:00,
2013-08-08 09:02:00,81.7,77.4,29.93,SE,136,4.0,14.0,87,0.00,,,0.00,meteohub,2013-08-08 13:02:00,
2013-08-08 09:07:00,81.7,77.4,29.93,SE,130,3.0,14.0,87,0.00,,,0.00,meteohub,2013-08-08 13:07:00,
2013-08-08 09:12:00,82.0,77.7,29.93,ESE,112,9.0,12.0,87,0.00,,,0.00,meteohub,2013-08-08 13:12:00,
2013-08-08 09:17:00,81.9,77.2,29.94,SSE,147,3.0,12.0,86,0.00,,,0.00,meteohub,2013-08-08 13:17:00,
2013-08-08 09:22:00,81.9,77.2,29.94,ESE,115,9.0,11.0,86,0.00,,,0.00,meteohub,2013-08-08 13:22:00,
2013-08-08 09:27:00,82.0,77.0,29.94,SE,146,9.0,12.0,85,0.00,,,0.00,meteohub,2013-08-08 13:27:00,
2013-08-08 09:32:00,82.0,77.0,29.94,ESE,123,5.0,14.0,85,0.00,,,0.00,meteohub,2013-08-08 13:32:00,
2013-08-08 09:37:00,82.0,77.0,29.94,ESE,111,3.0,14.0,85,0.00,,,0.00,meteohub,2013-08-08 13:37:00,
2013-08-08 09:47:00,82.6,77.2,29.94,East,86,1.0,12.0,84,0.00,,,0.00,meteohub,2013-08-08 13:47:00,
2013-08-08 09:52:00,82.9,77.2,29.94,SSE,157,7.0,12.0,83,0.00,,,0.00,meteohub,2013-08-08 13:52:00,
2013-08-08 09:57:00,83.1,77.4,29.95,SE,131,3.0,11.0,83,0.00,,,0.00,meteohub,2013-08-08 13:57:00,
2013-08-08 10:02:00,83.1,77.4,29.95,East,101,6.0,11.0,83,0.00,,,0.00,meteohub,2013-08-08 14:02:00,
2013-08-08 10:07:00,83.3,77.5,29.95,ESE,119,2.0,12.0,83,0.00,,,0.00,meteohub,2013-08-08 14:07:00,
2013-08-08 10:12:00,83.5,77.7,29.95,ESE,103,5.0,13.0,83,0.00,,,0.00,meteohub,2013-08-08 14:12:00,
2013-08-08 10:17:00,83.5,77.4,29.95,SE,145,7.0,13.0,82,0.00,,,0.00,meteohub,2013-08-08 14:17:00,
2013-08-08 10:22:00,83.8,77.4,29.96,SE,129,11.0,11.0,81,0.00,,,0.00,meteohub,2013-08-08 14:22:00,
2013-08-08 10:27:00,83.8,77.0,29.96,SSE,163,4.0,16.0,80,0.00,,,0.00,meteohub,2013-08-08 14:27:00,
2013-08-08 10:32:00,84.0,77.2,29.96,SSW,195,5.0,16.0,80,0.00,,,0.00,meteohub,2013-08-08 14:32:00,
2013-08-08 10:37:00,83.8,77.0,29.96,SE,139,11.0,16.0,80,0.00,,,0.00,meteohub,2013-08-08 14:37:00,
2013-08-08 10:42:00,83.7,76.8,29.96,ESE,121,4.0,15.0,80,0.00,,,0.00,meteohub,2013-08-08 14:42:00,
2013-08-08 10:47:00,84.0,77.2,29.96,ESE,115,7.0,15.0,80,0.00,,,0.00,meteohub,2013-08-08 14:47:00,
2013-08-08 10:52:00,84.2,77.4,29.96,ESE,108,11.0,14.0,80,0.00,,,0.00,meteohub,2013-08-08 14:52:00,
2013-08-08 10:57:00,84.4,77.5,29.96,SE,139,6.0,15.0,80,0.00,,,0.00,meteohub,2013-08-08 14:57:00,
2013-08-08 11:02:00,84.9,76.8,29.96,SSE,163,8.0,15.0,77,0.00,,,0.00,meteohub,2013-08-08 15:02:00,
2013-08-08 11:07:00,84.6,77.0,29.96,ESE,121,5.0,15.0,78,0.00,,,0.00,meteohub,2013-08-08 15:07:00,
2013-08-08 11:12:00,84.7,77.2,29.96,SSE,163,6.0,16.0,78,0.00,,,0.00,meteohub,2013-08-08 15:12:00,
2013-08-08 11:17:00,84.9,77.4,29.96,SSE,148,4.0,16.0,78,0.00,,,0.00,meteohub,2013-08-08 15:17:00,
2013-08-08 11:22:00,85.1,77.0,29.96,SE,140,9.0,16.0,77,0.00,,,0.00,meteohub,2013-08-08 15:22:00,
2013-08-08 11:27:00,84.9,77.4,29.96,SE,143,11.0,14.0,78,0.00,,,0.00,meteohub,2013-08-08 15:27:00,
2013-08-08 11:32:00,84.9,77.4,29.96,SE,135,9.0,14.0,78,0.00,,,0.00,meteohub,2013-08-08 15:32:00,
2013-08-08 11:37:00,85.1,77.0,29.96,SSE,167,4.0,14.0,77,0.00,,,0.00,meteohub,2013-08-08 15:37:00,
2013-08-08 11:42:00,85.3,77.2,29.96,ESE,117,12.0,14.0,77,0.00,,,0.00,meteohub,2013-08-08 15:42:00,
2013-08-08 11:47:00,85.1,77.0,29.96,SE,138,4.0,15.0,77,0.00,,,0.00,meteohub,2013-08-08 15:47:00,
2013-08-08 11:52:00,85.5,77.0,29.96,SSE,156,4.0,16.0,76,0.00,,,0.00,meteohub,2013-08-08 15:52:00,
2013-08-08 11:57:00,85.8,77.0,29.96,SSW,198,6.0,16.0,75,0.00,,,0.00,meteohub,2013-08-08 15:57:00,
2013-08-08 12:02:00,86.5,78.1,29.96,SE,130,7.0,14.0,76,0.00,,,0.00,meteohub,2013-08-08 16:02:00,
2013-08-08 12:07:00,86.7,77.4,29.96,SE,130,3.0,13.0,74,0.00,,,0.00,meteohub,2013-08-08 16:07:00,
2013-08-08 12:12:00,87.3,77.2,29.96,SSE,157,7.0,13.0,72,0.00,,,0.00,meteohub,2013-08-08 16:12:00,
2013-08-08 12:17:00,86.5,76.8,29.96,ESE,119,12.0,15.0,73,0.00,,,0.00,meteohub,2013-08-08 16:17:00,
2013-08-08 12:22:00,86.4,77.0,29.96,SE,141,7.0,15.0,74,0.00,,,0.00,meteohub,2013-08-08 16:22:00,
2013-08-08 12:27:00,86.7,77.4,29.96,ESE,123,4.0,14.0,74,0.00,,,0.00,meteohub,2013-08-08 16:27:00,
2013-08-08 12:32:00,86.7,77.0,29.96,SE,136,9.0,14.0,73,0.00,,,0.00,meteohub,2013-08-08 16:32:00,
2013-08-08 12:37:00,86.9,78.1,29.96,East,98,3.0,14.0,75,0.00,,,0.00,meteohub,2013-08-08 16:37:00,
2013-08-08 12:42:00,87.1,77.4,29.96,East,99,2.0,14.0,73,0.00,,,0.00,meteohub,2013-08-08 16:42:00,
2013-08-08 12:47:00,87.3,77.5,29.96,SW,225,5.0,12.0,73,0.00,,,0.00,meteohub,2013-08-08 16:47:00,
2013-08-08 12:52:00,87.4,77.7,29.96,ESE,109,0.0,15.0,73,0.00,,,0.00,meteohub,2013-08-08 16:52:00,
2013-08-08 12:57:00,87.4,76.8,29.96,SSE,168,9.0,15.0,71,0.00,,,0.00,meteohub,2013-08-08 16:57:00,
2013-08-08 13:02:00,87.3,76.6,29.96,SSE,153,3.0,15.0,71,0.00,,,0.00,meteohub,2013-08-08 17:02:00,
2013-08-08 13:07:00,87.3,76.6,29.96,SE,126,7.0,13.0,71,0.00,,,0.00,meteohub,2013-08-08 17:07:00,
2013-08-08 13:12:00,87.4,77.4,29.96,SE,136,11.0,13.0,72,0.00,,,0.00,meteohub,2013-08-08 17:12:00,
2013-08-08 13:17:00,87.6,77.5,29.95,ENE,75,8.0,11.0,72,0.00,,,0.00,meteohub,2013-08-08 17:17:00,
2013-08-08 13:22:00,88.2,77.9,29.95,SE,128,1.0,11.0,72,0.00,,,0.00,meteohub,2013-08-08 17:22:00,
2013-08-08 13:27:00,88.5,77.5,29.96,East,100,3.0,11.0,70,0.00,,,0.00,meteohub,2013-08-08 17:27:00,
2013-08-08 13:32:00,88.9,77.9,29.96,SE,136,4.0,10.0,70,0.00,,,0.00,meteohub,2013-08-08 17:32:00,
2013-08-08 13:37:00,88.3,77.4,29.95,South,176,6.0,12.0,70,0.00,,,0.00,meteohub,2013-08-08 17:37:00,
2013-08-08 13:42:00,88.7,77.2,29.95,ESE,114,4.0,16.0,69,0.00,,,0.00,meteohub,2013-08-08 17:42:00,
2013-08-08 13:47:00,89.1,77.2,29.95,SSE,152,5.0,16.0,68,0.00,,,0.00,meteohub,2013-08-08 17:47:00,
2013-08-08 13:52:00,89.1,77.2,29.95,East,98,6.0,16.0,68,0.00,,,0.00,meteohub,2013-08-08 17:52:00,
2013-08-08 14:02:00,88.7,77.7,29.94,SSW,198,2.0,13.0,70,0.00,,,0.00,meteohub,2013-08-08 18:02:00,
2013-08-08 14:07:00,89.6,77.2,29.94,SSE,147,3.0,13.0,67,0.00,,,0.00,meteohub,2013-08-08 18:07:00,
2013-08-08 14:12:00,89.4,77.0,29.94,ESE,121,5.0,12.0,67,0.00,,,0.00,meteohub,2013-08-08 18:12:00,
2013-08-08 14:17:00,89.4,77.5,29.94,SSE,148,5.0,15.0,68,0.00,,,0.00,meteohub,2013-08-08 18:17:00,
2013-08-08 14:22:00,89.2,76.5,29.94,SSE,157,11.0,15.0,66,0.00,,,0.00,meteohub,2013-08-08 18:22:00,
2013-08-08 14:27:00,89.2,76.5,29.94,SSE,149,5.0,15.0,66,0.00,,,0.00,meteohub,2013-08-08 18:27:00,
2013-08-08 14:32:00,89.4,77.0,29.94,SSE,153,3.0,12.0,67,0.00,,,0.00,meteohub,2013-08-08 18:32:00,
2013-08-08 14:37:00,89.8,76.5,29.94,SSE,155,5.0,12.0,65,0.00,,,0.00,meteohub,2013-08-08 18:37:00,
2013-08-08 14:42:00,89.6,75.7,29.94,SSE,153,7.0,14.0,64,0.00,,,0.00,meteohub,2013-08-08 18:42:00,
2013-08-08 14:47:00,89.8,76.5,29.93,SSE,151,4.0,15.0,65,0.00,,,0.00,meteohub,2013-08-08 18:47:00,
2013-08-08 14:52:00,90.3,75.9,29.93,SSE,158,5.0,15.0,63,0.00,,,0.00,meteohub,2013-08-08 18:52:00,
2013-08-08 14:57:00,90.3,75.9,29.93,SE,136,8.0,15.0,63,0.00,,,0.00,meteohub,2013-08-08 18:57:00,
2013-08-08 15:02:00,90.3,75.9,29.93,SE,132,7.0,12.0,63,0.00,,,0.00,meteohub,2013-08-08 19:02:00,
2013-08-08 15:07:00,90.3,76.5,29.93,South,171,1.0,12.0,64,0.00,,,0.00,meteohub,2013-08-08 19:07:00,
2013-08-08 15:12:00,90.5,76.1,29.93,South,189,5.0,12.0,63,0.00,,,0.00,meteohub,2013-08-08 19:12:00,
2013-08-08 15:17:00,90.7,75.9,29.93,SE,142,5.0,12.0,62,0.00,,,0.00,meteohub,2013-08-08 19:17:00,
2013-08-08 15:22:00,90.9,76.1,29.93,SSE,156,10.0,12.0,62,0.00,,,0.00,meteohub,2013-08-08 19:22:00,
2013-08-08 15:27:00,91.0,76.3,29.92,SSE,167,3.0,12.0,62,0.00,,,0.00,meteohub,2013-08-08 19:27:00,
2013-08-08 15:32:00,90.9,75.6,29.92,South,182,8.0,12.0,61,0.00,,,0.00,meteohub,2013-08-08 19:32:00,
2013-08-08 15:37:00,91.0,75.7,29.92,SSE,156,2.0,13.0,61,0.00,,,0.00,meteohub,2013-08-08 19:37:00,
2013-08-08 15:42:00,91.0,75.7,29.92,SSE,152,5.0,15.0,61,0.00,,,0.00,meteohub,2013-08-08 19:42:00,
2013-08-08 15:47:00,91.0,76.3,29.92,SE,132,5.0,15.0,62,0.00,,,0.00,meteohub,2013-08-08 19:47:00,
2013-08-08 15:52:00,91.2,75.4,29.92,SSE,158,8.0,15.0,60,0.00,,,0.00,meteohub,2013-08-08 19:52:00,
2013-08-08 16:02:00,91.2,75.9,29.91,SE,131,5.0,12.0,61,0.00,,,0.00,meteohub,2013-08-08 20:02:00,
2013-08-08 16:07:00,91.2,75.9,29.91,South,189,16.0,16.0,61,0.00,,,0.00,meteohub,2013-08-08 20:07:00,
2013-08-08 16:12:00,90.3,75.0,29.91,SSE,154,9.0,16.0,61,0.00,,,0.00,meteohub,2013-08-08 20:12:00,
2013-08-08 16:17:00,90.1,74.3,29.91,SE,130,3.0,16.0,60,0.00,,,0.00,meteohub,2013-08-08 20:17:00,
2013-08-08 16:22:00,90.1,74.3,29.91,SE,145,2.0,16.0,60,0.00,,,0.00,meteohub,2013-08-08 20:22:00,
2013-08-08 16:27:00,90.5,75.2,29.91,SSE,168,5.0,12.0,61,0.00,,,0.00,meteohub,2013-08-08 20:27:00,
2013-08-08 16:32:00,91.0,74.7,29.91,SE,139,3.0,12.0,59,0.00,,,0.00,meteohub,2013-08-08 20:32:00,
2013-08-08 16:37:00,91.0,74.7,29.90,South,180,7.0,9.0,59,0.00,,,0.00,meteohub,2013-08-08 20:37:00,
2013-08-08 16:42:00,91.6,75.2,29.90,SE,138,1.0,9.0,59,0.00,,,0.00,meteohub,2013-08-08 20:42:00,
2013-08-08 16:47:00,91.9,75.0,29.90,SE,126,2.0,9.0,58,0.00,,,0.00,meteohub,2013-08-08 20:47:00,
2013-08-08 16:52:00,92.3,74.8,29.90,SSE,154,3.0,9.0,57,0.00,,,0.00,meteohub,2013-08-08 20:52:00,
2013-08-08 16:57:00,91.0,78.1,29.91,West,267,8.0,10.0,66,0.00,,,0.00,meteohub,2013-08-08 20:57:00,
2013-08-08 17:02:00,90.1,78.1,29.91,SW,223,6.0,10.0,68,0.00,,,0.00,meteohub,2013-08-08 21:02:00,
2013-08-08 17:07:00,89.6,78.1,29.91,West,268,9.0,10.0,69,0.00,,,0.00,meteohub,2013-08-08 21:07:00,
2013-08-08 17:17:00,90.0,77.5,29.91,NE,45,0.0,11.0,67,0.00,,,0.00,meteohub,2013-08-08 21:17:00,
2013-08-08 17:22:00,88.9,76.1,29.91,NE,47,2.0,11.0,66,0.00,,,0.00,meteohub,2013-08-08 21:22:00,
2013-08-08 17:27:00,88.2,76.6,29.91,North,0,7.0,11.0,69,0.00,,,0.00,meteohub,2013-08-08 21:27:00,
2013-08-08 17:32:00,87.3,76.3,29.91,North,0,4.0,11.0,70,0.00,,,0.00,meteohub,2013-08-08 21:32:00,
2013-08-08 17:42:00,86.5,76.5,29.90,NW,316,3.0,7.0,72,0.00,,,0.00,meteohub,2013-08-08 21:42:00,
2013-08-08 17:47:00,86.4,76.6,29.91,NNW,332,3.0,5.0,73,0.00,,,0.00,meteohub,2013-08-08 21:47:00,
2013-08-08 17:52:00,86.4,75.9,29.91,NNW,338,3.0,6.0,71,0.00,,,0.00,meteohub,2013-08-08 21:52:00,
2013-08-08 18:02:00,86.0,76.8,29.92,NNW,348,4.0,10.0,74,0.00,,,0.00,meteohub,2013-08-08 22:02:00,
2013-08-08 18:12:00,85.3,76.5,29.92,NW,304,4.0,8.0,75,0.00,,,0.00,meteohub,2013-08-08 22:12:00,
2013-08-08 18:17:00,84.6,76.1,29.93,SSW,207,4.0,8.0,76,0.00,,,0.00,meteohub,2013-08-08 22:17:00,
2013-08-08 18:22:00,82.9,73.0,29.93,West,265,9.0,15.0,72,0.00,,,0.00,meteohub,2013-08-08 22:22:00,
2013-08-08 18:27:00,81.9,73.2,29.93,WSW,248,10.0,19.0,75,0.00,,,0.00,meteohub,2013-08-08 22:27:00,
2013-08-08 18:37:00,81.3,73.4,29.93,West,278,4.0,16.0,77,0.00,,,0.00,meteohub,2013-08-08 22:37:00,
2013-08-08 18:42:00,81.5,73.9,29.92,West,274,2.0,14.0,78,0.00,,,0.00,meteohub,2013-08-08 22:42:00,
2013-08-08 18:47:00,81.3,73.8,29.92,WSW,250,6.0,14.0,78,0.00,,,0.00,meteohub,2013-08-08 22:47:00,
2013-08-08 18:52:00,81.1,73.9,29.92,West,281,1.0,8.0,79,0.00,,,0.00,meteohub,2013-08-08 22:52:00,
2013-08-08 19:02:00,81.1,73.9,29.93,West,269,1.0,7.0,79,0.00,,,0.00,meteohub,2013-08-08 23:02:00,
2013-08-08 19:07:00,81.3,74.5,29.93,WSW,254,4.0,5.0,80,0.00,,,0.00,meteohub,2013-08-08 23:07:00,
2013-08-08 19:12:00,81.3,74.1,29.93,SSW,208,6.0,6.0,79,0.00,,,0.00,meteohub,2013-08-08 23:12:00,
2013-08-08 19:17:00,81.3,73.8,29.94,SSW,206,9.0,9.0,78,0.00,,,0.00,meteohub,2013-08-08 23:17:00,
2013-08-08 19:22:00,80.8,72.9,29.94,South,190,5.0,16.0,77,0.00,,,0.00,meteohub,2013-08-08 23:22:00,
2013-08-08 19:27:00,81.0,73.0,29.95,SSW,193,6.0,16.0,77,0.00,,,0.00,meteohub,2013-08-08 23:27:00,
2013-08-08 19:37:00,79.2,73.2,29.96,SW,217,14.0,22.0,82,0.00,,,0.00,meteohub,2013-08-08 23:37:00,
2013-08-08 19:42:00,79.0,73.0,29.95,SSW,213,5.0,22.0,82,0.00,,,0.00,meteohub,2013-08-08 23:42:00,
2013-08-08 19:52:00,78.3,72.7,29.95,SW,225,10.0,16.0,83,0.00,,,0.00,meteohub,2013-08-08 23:52:00,
2013-08-08 19:57:00,78.1,72.5,29.95,SW,216,10.0,16.0,83,0.00,,,0.00,meteohub,2013-08-08 23:57:00,
2013-08-08 20:02:00,77.5,72.0,29.96,SSW,198,7.0,18.0,83,0.00,,,0.00,meteohub,2013-08-09 00:02:00,
2013-08-08 20:07:00,77.5,72.0,29.95,SSW,205,2.0,18.0,83,0.00,,,0.00,meteohub,2013-08-09 00:07:00,
2013-08-08 20:17:00,77.5,71.6,29.95,SSW,198,4.0,11.0,82,0.00,,,0.00,meteohub,2013-08-09 00:17:00,
2013-08-08 20:22:00,77.5,71.6,29.94,SSW,201,2.0,9.0,82,0.00,,,0.00,meteohub,2013-08-09 00:22:00,
2013-08-08 20:27:00,77.5,71.6,29.94,SSW,201,0.0,9.0,82,0.00,,,0.00,meteohub,2013-08-09 00:27:00,
2013-08-08 20:32:00,77.5,71.6,29.94,SSW,198,0.0,7.0,82,0.00,,,0.00,meteohub,2013-08-09 00:32:00,
2013-08-08 20:37:00,77.4,71.8,29.94,ENE,58,1.0,4.0,83,0.00,,,0.00,meteohub,2013-08-09 00:37:00,
2013-08-08 20:42:00,77.2,71.6,29.95,ENE,58,2.0,4.0,83,0.00,,,0.00,meteohub,2013-08-09 00:42:00,
2013-08-08 20:47:00,77.2,72.0,29.95,East,85,3.0,4.0,84,0.00,,,0.00,meteohub,2013-08-09 00:47:00,
2013-08-08 20:52:00,77.4,72.1,29.95,East,88,3.0,6.0,84,0.00,,,0.00,meteohub,2013-08-09 00:52:00,
2013-08-08 20:57:00,77.5,72.7,29.95,East,84,3.0,8.0,85,0.00,,,0.00,meteohub,2013-08-09 00:57:00,
2013-08-08 21:07:00,78.1,73.6,29.95,East,99,2.0,8.0,86,0.00,,,0.00,meteohub,2013-08-09 01:07:00,
2013-08-08 21:12:00,78.3,74.1,29.95,ESE,110,4.0,7.0,87,0.00,,,0.00,meteohub,2013-08-09 01:12:00,
2013-08-08 21:22:00,79.0,74.8,29.95,SE,132,2.0,5.0,87,0.00,,,0.00,meteohub,2013-08-09 01:22:00,
2013-08-08 21:27:00,79.0,74.5,29.96,NE,44,4.0,5.0,86,0.00,,,0.00,meteohub,2013-08-09 01:27:00,
2013-08-08 21:37:00,78.6,73.8,29.96,ENE,57,0.0,6.0,85,0.00,,,0.00,meteohub,2013-08-09 01:37:00,
2013-08-08 21:42:00,78.6,74.1,29.97,East,97,1.0,6.0,86,0.00,,,0.00,meteohub,2013-08-09 01:42:00,
2013-08-08 21:47:00,78.6,73.8,29.97,East,98,0.0,8.0,85,0.00,,,0.00,meteohub,2013-08-09 01:47:00,
2013-08-08 21:57:00,79.0,74.5,29.97,East,93,1.0,6.0,86,0.00,,,0.00,meteohub,2013-08-09 01:57:00,
2013-08-08 22:07:00,79.2,74.3,29.98,East,94,0.0,5.0,85,0.00,,,0.00,meteohub,2013-08-09 02:07:00,
2013-08-08 22:12:00,79.2,74.3,29.98,East,93,0.0,5.0,85,0.00,,,0.00,meteohub,2013-08-09 02:12:00,
2013-08-08 22:17:00,79.0,74.1,29.98,East,94,0.0,3.0,85,0.00,,,0.00,meteohub,2013-08-09 02:17:00,
2013-08-08 22:22:00,79.0,74.1,29.99,East,82,1.0,5.0,85,0.00,,,0.00,meteohub,2013-08-09 02:22:00,
2013-08-08 22:27:00,79.2,74.3,29.99,NE,35,2.0,6.0,85,0.00,,,0.00,meteohub,2013-08-09 02:27:00,
2013-08-08 22:37:00,79.2,74.3,29.99,ENE,61,1.0,9.0,85,0.00,,,0.00,meteohub,2013-08-09 02:37:00,
2013-08-08 22:42:00,79.2,74.3,29.99,ENE,71,2.0,9.0,85,0.00,,,0.00,meteohub,2013-08-09 02:42:00,
2013-08-08 22:47:00,79.0,74.5,29.99,ENE,72,2.0,6.0,86,0.00,,,0.00,meteohub,2013-08-09 02:47:00,
2013-08-08 22:52:00,79.0,74.5,29.99,ENE,76,3.0,5.0,86,0.00,,,0.00,meteohub,2013-08-09 02:52:00,
2013-08-08 22:57:00,78.8,74.3,29.99,ENE,76,0.0,5.0,86,0.00,,,0.00,meteohub,2013-08-09 02:57:00,
2013-08-08 23:02:00,78.6,73.8,29.99,NE,46,3.0,5.0,85,0.00,,,0.00,meteohub,2013-08-09 03:02:00,
2013-08-08 23:07:00,78.6,74.1,29.99,NE,41,4.0,6.0,86,0.00,,,0.00,meteohub,2013-08-09 03:07:00,
2013-08-08 23:12:00,78.6,73.8,29.99,NE,38,2.0,6.0,85,0.00,,,0.00,meteohub,2013-08-09 03:12:00,
2013-08-08 23:17:00,78.4,73.6,29.99,NE,38,3.0,6.0,85,0.00,,,0.00,meteohub,2013-08-09 03:17:00,
2013-08-08 23:22:00,78.4,73.6,29.99,NE,38,1.0,6.0,85,0.00,,,0.00,meteohub,2013-08-09 03:22:00,
2013-08-08 23:27:00,78.4,73.6,29.99,NE,38,3.0,6.0,85,0.00,,,0.00,meteohub,2013-08-09 03:27:00,
2013-08-08 23:37:00,78.3,73.4,29.99,NE,38,3.0,4.0,85,0.00,,,0.00,meteohub,2013-08-09 03:37:00,
2013-08-08 23:42:00,78.3,73.4,29.99,NE,40,5.0,6.0,85,0.00,,,0.00,meteohub,2013-08-09 03:42:00,
2013-08-08 23:52:00,78.1,73.2,29.99,NE,42,1.0,6.0,85,0.00,,,0.00,meteohub,2013-08-09 03:52:00,
2013-08-08 23:57:00,78.1,73.2,29.99,NE,45,0.0,5.0,85,0.00,,,0.00,meteohub,2013-08-09 03:57:00,